KE0TRL Weather Reports


time (UTC)temp
C
wind
direction
speed
KPH
gust
KPH
rain 1hr
cm
rain 24hr
cm
rain mn
cm
humidity
%
barometer
mb
20260506023902 9 158 1.6 4.8 0.00 0.00 0.05 40 1012.2
20260506022802 10 180 4.8 6.4 0.00 0.00 0.05 40 1012.2
20260506021702 10 113 3.2 6.4 0.00 0.00 0.05 39 1012.2
20260506020602 10 180 4.8 8.0 0.00 0.00 0.05 39 1011.9
20260506015502 10 158 3.2 4.8 0.00 0.00 0.05 39 1011.9
20260506013202 10 225 3.2 6.4 0.00 0.00 0.05 39 1011.5
20260506012102 10 158 3.2 6.4 0.00 0.00 0.05 39 1011.5
20260506011002 11 248 4.8 4.8 0.00 0.00 0.05 39 1011.5
20260506005902 11 158 4.8 9.7 0.00 0.00 0.05 39 1011.2
20260506004702 11 158 4.8 4.8 0.00 0.00 0.05 40 1011.5
20260506002502 11 158 11.3 11.3 0.00 0.00 0.05 37 1011.2
20260506001402 12 158 8.0 12.9 0.00 0.00 0.05 37 1010.8
20260505235102 12 45 8.0 11.3 0.00 0.00 0.05 35 1010.8
20260505234003 12 248 3.2 6.4 0.00 0.00 0.05 35 1010.8
20260505232902 12 180 8.0 9.7 0.00 0.00 0.05 35 1010.8
20260505231702 12 293 3.2 8.0 0.00 0.00 0.05 35 1010.8
20260505225502 13 203 9.7 12.9 0.00 0.00 0.05 35 1010.8
20260505224402 14 270 3.2 9.7 0.00 0.00 0.05 34 1010.5
20260505223302 15 180 4.8 9.7 0.00 0.00 0.05 35 1010.5
20260505222102 14 113 3.2 12.9 0.00 0.00 0.05 34 1010.5
20260505221002 14 180 9.7 9.7 0.00 0.00 0.05 35 1010.5
20260505215902 13 180 6.4 9.7 0.00 0.00 0.05 35 1010.2
20260505214702 13 158 9.7 14.5 0.00 0.00 0.05 35 1010.5
20260505213602 13 225 9.7 9.7 0.00 0.00 0.05 35 1010.5
20260505211302 14 113 4.8 8.0 0.00 0.00 0.05 37 1010.5
20260505203802 15 203 8.0 9.7 0.00 0.00 0.05 37 1010.8
20260505202702 14 203 9.7 12.9 0.00 0.00 0.05 37 1011.2
20260505201602 15 203 6.4 6.4 0.00 0.00 0.05 35 1011.2
20260505200502 15 225 3.2 14.5 0.00 0.00 0.05 37 1011.2
20260505195403 15 180 8.0 14.5 0.00 0.00 0.05 35 1011.2
20260505194302 15 180 4.8 12.9 0.00 0.00 0.05 35 1011.5
20260505193102 15 45 4.8 6.4 0.00 0.00 0.05 37 1011.2
20260505192003 15 113 8.0 8.0 0.00 0.00 0.05 35 1011.2
20260505190902 15 158 6.4 9.7 0.00 0.00 0.05 35 1011.5
20260505185802 14 180 3.2 8.0 0.00 0.00 0.05 37 1011.5
20260505184602 15 135 11.3 11.3 0.00 0.00 0.05 37 1011.5
20260505183502 15 180 3.2 11.3 0.00 0.00 0.05 37 1011.9
20260505182403 14 158 3.2 6.4 0.00 0.00 0.05 37 1011.9
20260505181302 14 180 3.2 8.0 0.00 0.00 0.05 39 1011.9
20260505175003 14 248 1.6 11.3 0.00 0.00 0.05 40 1011.9
20260505172802 13 180 9.7 11.3 0.00 0.00 0.05 41 1012.2
20260505171702 12 45 4.8 6.4 0.00 0.00 0.05 46 1012.2
20260505170702 12 203 0.0 8.0 0.00 0.00 0.05 49 1012.2
20260505165503 12 225 1.6 4.8 0.00 0.00 0.05 49 1012.2
20260505163302 12 113 3.2 4.8 0.00 0.00 0.05 50 1012.2
20260505162202 11 180 4.8 4.8 0.00 0.00 0.05 54 1011.9
20260505161102 11 203 3.2 4.8 0.00 0.00 0.05 55 1011.9
20260505152702 10 180 4.8 4.8 0.00 0.00 0.05 61 1011.9
20260505151701 9 68 3.2 6.4 0.00 0.00 0.05 61 1011.5
20260505150602 9 180 8.0 8.0 0.00 0.00 0.05 65 1011.5
20260505123102 7 68 1.6 3.2 0.00 0.00 0.05 79 1009.8
20260505122102 7 158 1.6 3.2 0.00 0.00 0.05 74 1009.8
20260505121003 7 158 1.6 1.6 0.00 0.00 0.05 71 1009.1
20260505115902 7 158 0.0 0.0 0.00 0.00 0.05 76 1009.5
20260505114902 7 158 0.0 0.0 0.00 0.00 0.05 80 1009.1
20260505113702 7 158 0.0 0.0 0.00 0.00 0.05 81 1009.1
20260505112102 7 158 0.0 0.0 0.00 0.00 0.05 80 1009.1
20260505110802 7 158 0.0 0.0 0.00 0.00 0.05 81 1008.8
20260505101902 7 158 0.0 0.0 0.00 0.00 0.05 81 1009.1
20260505100702 7 90 0.0 0.0 0.00 0.00 0.05 81 1009.1
20260505095402 7 45 3.2 3.2 0.00 0.00 0.05 81 1009.1
20260505094302 8 23 0.0 3.2 0.00 0.00 0.05 80 1008.8
20260505093202 7 158 0.0 3.2 0.00 0.00 0.05 80 1008.8
20260505092102 7 180 0.0 4.8 0.00 0.00 0.05 80 1008.8
20260505085802 8 338 1.6 3.2 0.00 0.00 0.05 81 1008.1
20260505084702 8 225 1.6 3.2 0.00 0.00 0.05 83 1008.5
20260505083702 8 45 1.6 3.2 0.00 0.00 0.05 83 1008.1
20260505082602 8 68 3.2 3.2 0.00 0.00 0.05 83 1008.1
20260505081502 8 23 1.6 1.6 0.00 0.00 0.05 83 1007.8
20260505080402 8 68 0.0 0.0 0.00 0.00 0.05 85 1007.8
20260505075304 8 158 0.0 0.0 0.00 0.00 0.05 86 1007.5
20260505074202 8 45 1.6 4.8 0.00 0.00 0.05 86 1007.5
20260505073102 8 68 1.6 3.2 0.00 0.00 0.05 85 1007.8
20260505072002 8 45 1.6 4.8 0.00 0.00 0.05 83 1007.8
20260505070902 8 45 3.2 3.2 0.00 0.00 0.05 83 1007.5
20260505065802 8 158 0.0 1.6 0.03 0.00 0.05 81 1007.1
20260505064502 8 158 1.6 1.6 0.03 0.00 0.05 81 1007.1
20260505063402 8 158 0.0 0.0 0.03 0.00 0.05 81 1007.5
20260505062304 8 158 3.2 3.2 0.03 0.00 0.05 81 1007.5
20260505061102 8 158 1.6 3.2 0.03 0.00 0.05 81 1008.1
20260505055902 8 158 3.2 3.2 0.03 0.00 0.03 81 1007.8
20260505054602 8 158 1.6 3.2 0.03 0.00 0.03 79 1007.8
20260505053502 8 158 1.6 3.2 0.03 0.00 0.03 79 1008.1
20260505052304 8 158 1.6 4.8 0.03 0.00 0.03 79 1007.5
20260505051202 8 180 1.6 4.8 0.00 0.00 0.00 76 1007.5
20260505040802 11 113 3.2 11.3 0.00 0.00 0.00 50 1007.8
20260505034602 12 158 1.6 11.3 0.00 0.00 0.00 45 1007.5
20260505033502 12 180 6.4 9.7 0.00 0.00 0.00 45 1007.5
20260505032402 12 180 4.8 11.3 0.00 0.00 0.00 45 1007.5
20260505031302 12 135 6.4 9.7 0.00 0.00 0.00 45 1007.5